This demonstration page uses our WeatherBlox Daily Observations layout. Learn more.

38.89511, -77.03637

Hourly Observations for August 31, 2015

Temp ( °F °C ) Dew Point ( °F °C ) Humidity (%) Winds ( mph kmh ) Pressure ( in mb ) Visibility ( mi km ) Precip ( " mm )
12:52 am 00:52 Cloudy 79 26 64 18 61 61 SSW 9 15 30.09 1019 10 16.09344 0 0
1:52 am 01:52 Cloudy 77 25 66 19 69 69 S 7 11 30.09 1019 10 16.09344 0 0
2:52 am 02:52 Cloudy 77 25 66 19 69 69 S 8 13 30.06 1018 10 16.09344 0 0
3:52 am 03:52 Cloudy 75 24 66 19 74 74 S 8 13 30.06 1018 10 16.09344 0 0
4:52 am 04:52 Cloudy 75 24 66 19 74 74 S 5 7 30.06 1018 10 16.09344 0 0
5:52 am 05:52 Cloudy 75 24 68 20 78 78 S 6 9 30.06 1018 10 16.09344 0 0
6:52 am 06:52 Cloudy 75 24 66 19 74 74 SSW 7 11 30.09 1019 10 16.09344 0 0
7:52 am 07:52 Cloudy 75 24 68 20 78 78 SSW 5 7 30.09 1019 10 16.09344 0 0
8:52 am 08:52 Cloudy 79 26 66 19 65 65 S 6 9 30.09 1019 10 16.09344 0 0
9:52 am 09:52 Cloudy 81 27 66 19 62 62 S 7 11 30.09 1019 10 16.09344 0 0
10:52 am 10:52 Cloudy 81 27 70 21 70 70 S 7 11 30.12 1020 10 16.09344 0 0
11:52 am 11:52 Cloudy 82 28 63 17 51 51 WSW 9 15 30.12 1020 10 16.09344 0 0
12:52 pm 12:52 Cloudy 84 29 64 18 51 51 SW 7 11 30.09 1019 10 16.09344 0 0
1:52 pm 13:52 Cloudy 84 29 70 21 62 62 S 13 20 30.09 1019 10 16.09344 0 0
2:52 pm 14:52 Mostly Cloudy 86 30 66 19 52 52 SSW 9 15 30.06 1018 10 16.09344 0 0
3:52 pm 15:52 Mostly Cloudy 88 31 68 20 52 52 S 9 15 30.06 1018 10 16.09344 0 0
4:52 pm 16:52 Partly Cloudy 88 31 68 20 52 52 S 10 17 30.03 1017 10 16.09344 0 0
5:52 pm 17:52 Partly Cloudy 84 29 66 19 55 55 S 10 17 30.03 1017 10 16.09344 0 0
6:52 pm 18:52 Mostly Cloudy 84 29 66 19 55 55 S 8 13 30.03 1017 10 16.09344 0 0
7:52 pm 19:52 Mostly Cloudy 82 28 64 18 55 55 S 10 17 30.03 1017 10 16.09344 0 0
8:52 pm 20:52 Partly Cloudy 81 27 66 19 62 62 S 7 11 30.06 1018 10 16.09344 0 0
9:52 pm 21:52 Partly Cloudy 79 26 66 19 65 65 S 8 13 30.06 1018 10 16.09344 0 0
10:52 pm 22:52 Partly Cloudy 77 25 70 21 79 79 S 10 17 30.06 1018 10 16.09344 0 0
11:52 pm 23:52 Partly Cloudy 75 24 72 22 89 89 S 7 11 30.06 1018 10 16.09344 0 0

Powered by AerisWeather